EN

Hourly Weather Godzieszowa

Today, 16 May, Sunday

Time Temperature Precipitation Wind Pressure Humidity
00:00 +10°C° 0.6 mm 2 mps 739 mmHg 95%
01:00 +10°C° 0 mm 2 mps 739 mmHg 95%
02:00 +10°C° 0.1 mm 2 mps 739 mmHg 96%
03:00 +9°C° 0.1 mm 2 mps 739 mmHg 96%
04:00 +9°C° 0.1 mm 2 mps 738 mmHg 96%
05:00 +10°C° 0 mm 2 mps 739 mmHg 93%
06:00 +11°C° 0 mm 3 mps 739 mmHg 90%
07:00 +12°C° 0 mm 3 mps 739 mmHg 87%
08:00 +13°C° 0.2 mm 3 mps 739 mmHg 83%
09:00 +13°C° 0.2 mm 4 mps 739 mmHg 79%
10:00 +14°C° 0.2 mm 4 mps 740 mmHg 74%
11:00 +15°C° 0.2 mm 4 mps 740 mmHg 71%
12:00 +15°C° 0.2 mm 4 mps 740 mmHg 68%
13:00 +17°C° 0.2 mm 4 mps 740 mmHg 64%
14:00 +17°C° 0.1 mm 4 mps 739 mmHg 63%
15:00 +17°C° 0.1 mm 3 mps 739 mmHg 63%
16:00 +17°C° 0.1 mm 3 mps 739 mmHg 62%
17:00 +16°C° 0 mm 2 mps 739 mmHg 67%
18:00 +15°C° 0 mm 2 mps 739 mmHg 71%
19:00 +14°C° 0 mm 1 mps 739 mmHg 76%
20:00 +13°C° 0 mm 2 mps 739 mmHg 79%
21:00 +12°C° 0 mm 2 mps 739 mmHg 82%
22:00 +9°C° 0 mm 2 mps 739 mmHg 85%
23:00 +9°C° 0 mm 2 mps 739 mmHg 86%

Tomorrow, 17 May, Monday

Time Temperature Precipitation Wind Pressure Humidity
00:00 +9°C° 0 mm 2 mps 739 mmHg 87%
01:00 +9°C° 0 mm 2 mps 739 mmHg 87%
02:00 +9°C° 0 mm 2 mps 739 mmHg 87%
03:00 +9°C° 0 mm 2 mps 739 mmHg 87%
04:00 +9°C° 0 mm 2 mps 739 mmHg 87%
05:00 +9°C° 0.2 mm 2 mps 739 mmHg 87%
06:00 +10°C° 0.2 mm 3 mps 739 mmHg 87%
07:00 +11°C° 0.2 mm 3 mps 739 mmHg 87%
08:00 +11°C° 0.9 mm 3 mps 739 mmHg 88%
09:00 +12°C° 0.9 mm 2 mps 739 mmHg 89%
10:00 +12°C° 0.9 mm 2 mps 739 mmHg 91%
11:00 +12°C° 1 mm 2 mps 740 mmHg 92%
12:00 +12°C° 1 mm 1 mps 740 mmHg 93%
13:00 +12°C° 1 mm 1 mps 740 mmHg 94%
14:00 +12°C° 0.6 mm 1 mps 740 mmHg 92%
15:00 +12°C° 0.6 mm 1 mps 740 mmHg 90%
16:00 +13°C° 0.6 mm 1 mps 740 mmHg 88%
17:00 +13°C° 0.3 mm 2 mps 740 mmHg 89%
18:00 +12°C° 0.3 mm 2 mps 740 mmHg 90%
19:00 +11°C° 0.3 mm 3 mps 740 mmHg 91%
20:00 +11°C° 0.2 mm 3 mps 740 mmHg 91%
21:00 +10°C° 0.2 mm 4 mps 740 mmHg 92%
22:00 +9°C° 0.2 mm 5 mps 741 mmHg 93%
23:00 +9°C° 0 mm 5 mps 741 mmHg 92%

Day after tomorrow, 18 May, Tuesday

Time Temperature Precipitation Wind Pressure Humidity
00:00 +8°C° 0 mm 6 mps 741 mmHg 92%
01:00 +8°C° 0 mm 6 mps 741 mmHg 92%
02:00 +7°C° 0 mm 5 mps 741 mmHg 92%
03:00 +7°C° 0 mm 5 mps 741 mmHg 93%
04:00 +6°C° 0 mm 4 mps 742 mmHg 93%
05:00 +7°C° 0 mm 5 mps 742 mmHg 90%
06:00 +8°C° 0 mm 5 mps 742 mmHg 87%
07:00 +9°C° 0 mm 6 mps 742 mmHg 84%
08:00 +10°C° 0 mm 6 mps 742 mmHg 83%
09:00 +10°C° 0 mm 5 mps 743 mmHg 82%
10:00 +10°C° 0 mm 5 mps 743 mmHg 81%
11:00 +11°C° 0.1 mm 6 mps 743 mmHg 76%
12:00 +13°C° 0.1 mm 6 mps 743 mmHg 71%
13:00 +14°C° 0.1 mm 6 mps 743 mmHg 66%
14:00 +14°C° 0.2 mm 6 mps 743 mmHg 68%
15:00 +14°C° 0.2 mm 6 mps 743 mmHg 70%
16:00 +14°C° 0.2 mm 6 mps 743 mmHg 72%
17:00 +13°C° 0.2 mm 5 mps 743 mmHg 77%
18:00 +12°C° 0.2 mm 4 mps 743 mmHg 81%
19:00 +11°C° 0.2 mm 4 mps 743 mmHg 86%
20:00 +10°C° 0 mm 3 mps 744 mmHg 89%
21:00 +9°C° 0 mm 3 mps 744 mmHg 92%
22:00 +8°C° 0 mm 3 mps 745 mmHg 95%
23:00 +8°C° 0 mm 3 mps 745 mmHg 95%

19 May, Wednesday

Time Temperature Precipitation Wind Pressure Humidity
00:00 +8°C° 0 mm 3 mps 745 mmHg 95%
01:00 +7°C° 0 mm 3 mps 745 mmHg 95%
02:00 +7°C° 0 mm 3 mps 745 mmHg 95%
03:00 +7°C° 0 mm 3 mps 745 mmHg 95%
04:00 +5°C° 0 mm 3 mps 745 mmHg 95%
05:00 +6°C° 0 mm 4 mps 746 mmHg 91%
06:00 +8°C° 0 mm 4 mps 746 mmHg 87%
07:00 +9°C° 0 mm 5 mps 746 mmHg 84%
08:00 +9°C° 0.1 mm 5 mps 746 mmHg 83%
09:00 +9°C° 0.1 mm 5 mps 746 mmHg 82%
10:00 +10°C° 0.1 mm 5 mps 746 mmHg 81%
11:00 +10°C° 0.2 mm 5 mps 746 mmHg 82%
12:00 +10°C° 0.2 mm 5 mps 746 mmHg 83%
13:00 +10°C° 0.2 mm 5 mps 746 mmHg 84%
14:00 +10°C° 0.2 mm 5 mps 746 mmHg 83%
15:00 +10°C° 0.2 mm 5 mps 746 mmHg 82%
16:00 +10°C° 0.2 mm 5 mps 746 mmHg 81%
17:00 +10°C° 0.2 mm 5 mps 746 mmHg 84%
18:00 +10°C° 0.2 mm 4 mps 747 mmHg 86%
19:00 +10°C° 0.2 mm 3 mps 747 mmHg 88%
20:00 +9°C° 0 mm 3 mps 747 mmHg 90%
21:00 +8°C° 0 mm 3 mps 747 mmHg 92%
22:00 +7°C° 0 mm 3 mps 747 mmHg 94%
23:00 +7°C° 0 mm 3 mps 747 mmHg 94%

20 May, Thursday

Time Temperature Precipitation Wind Pressure Humidity
00:00 +7°C° 0 mm 3 mps 747 mmHg 95%
01:00 +6°C° 0 mm 2 mps 747 mmHg 95%
02:00 +5°C° 0 mm 3 mps 747 mmHg 95%
03:00 +5°C° 0 mm 3 mps 747 mmHg 96%
04:00 +5°C° 0 mm 3 mps 747 mmHg 96%
05:00 +7°C° 0 mm 3 mps 747 mmHg 93%
06:00 +7°C° 0 mm 4 mps 748 mmHg 90%
07:00 +8°C° 0 mm 4 mps 748 mmHg 87%
08:00 +10°C° 0.2 mm 5 mps 748 mmHg 82%
09:00 +12°C° 0.2 mm 5 mps 748 mmHg 76%
10:00 +13°C° 0.2 mm 5 mps 748 mmHg 71%
11:00 +13°C° 0.3 mm 5 mps 748 mmHg 69%
12:00 +13°C° 0.3 mm 5 mps 748 mmHg 68%
13:00 +14°C° 0.3 mm 5 mps 748 mmHg 67%
14:00 +14°C° 0.2 mm 5 mps 748 mmHg 65%
15:00 +14°C° 0.2 mm 5 mps 748 mmHg 63%
16:00 +15°C° 0.2 mm 4 mps 748 mmHg 61%
17:00 +13°C° 0 mm 4 mps 748 mmHg 65%
18:00 +12°C° 0 mm 3 mps 748 mmHg 70%
19:00 +12°C° 0 mm 2 mps 748 mmHg 75%
20:00 +10°C° 0 mm 3 mps 748 mmHg 78%
21:00 +9°C° 0 mm 3 mps 748 mmHg 82%
22:00 +7°C° 0 mm 3 mps 749 mmHg 86%
23:00 +7°C° 0 mm 3 mps 749 mmHg 87%

21 May, Friday

Time Temperature Precipitation Wind Pressure Humidity
00:00 +7°C° 0 mm 3 mps 748 mmHg 89%
01:00 +5°C° 0 mm 3 mps 748 mmHg 90%
02:00 +5°C° 0 mm 3 mps 748 mmHg 91%
03:00 +6°C° 0 mm 2 mps 748 mmHg 92%
04:00 +5°C° 0 mm 2 mps 748 mmHg 92%
05:00 +7°C° 0 mm 2 mps 748 mmHg 87%
06:00 +9°C° 0 mm 2 mps 748 mmHg 82%
07:00 +12°C° 0 mm 2 mps 748 mmHg 77%
08:00 +12°C° 0 mm 3 mps 748 mmHg 71%
09:00 +13°C° 0 mm 3 mps 747 mmHg 65%
10:00 +16°C° 0 mm 3 mps 747 mmHg 60%
11:00 +17°C° 0.2 mm 4 mps 746 mmHg 57%
12:00 +17°C° 0.2 mm 4 mps 746 mmHg 55%
13:00 +17°C° 0.2 mm 5 mps 745 mmHg 53%
14:00 +18°C° 0 mm 4 mps 745 mmHg 56%
15:00 +17°C° 0 mm 4 mps 744 mmHg 59%
16:00 +17°C° 0 mm 3 mps 744 mmHg 62%
17:00 +16°C° 0 mm 3 mps 744 mmHg 66%
18:00 +14°C° 0 mm 3 mps 743 mmHg 71%
19:00 +14°C° 0 mm 3 mps 743 mmHg 75%
20:00 +13°C° 0 mm 3 mps 743 mmHg 74%
21:00 +13°C° 0 mm 4 mps 742 mmHg 73%
22:00 +13°C° 0 mm 4 mps 742 mmHg 72%
23:00 +12°C° 0 mm 4 mps 742 mmHg 75%
Show more